User: anonymous
Location: ROBOsky.com Wild Flower Ridge Observatory
(43.9736°N, 79.9739°W)
Time: 08:21:42
(UTC-04:00)
Language:

Cosmos 1190 Rocket - Orbit

View from above orbital plane
View from above orbital plane
View from above satellite
View from above satellite

Ground track
Ground track

The orbit data is extracted from the following two-line orbital elements,

1 11870U 80056B   14208.93150400  .00000182  00000-0  70784-4 0  7699
2 11870 074.0554 345.2317 0016555 203.8155 290.3810 14.36508238783264
Epoch (UTC): 27 July 2014 22:21:21
Eccentricity: 0.0016555
inclination: 74.0554°
perigee height: 758 km
apogee height: 782 km
right ascension of ascending node: 345.2317°
argument of perigee: 203.8155°
revolutions per day: 14.36508238
mean anomaly at epoch: 290.3810°
orbit number at epoch: 78326

The dashed part of the orbit path shows where the satellite is in the earth's shadow,  

DLR